Simultaneous Nadir Overpasses (SNOs) Predictions

Prediction of SNOs near US between AQUA and NPP Satellite Orbit:

Table of predicted SNOs near US for the next 10.0 days since TLE Epoch: 6/28/2014
Index Date (AQUA) Time (AQUA) AQUA Lat,Lon Date (NPP) Time (NPP) NPP Lat,Lon Distance(km) Time Diff (sec)
1 06/30/2014 17:27:52 49.94, -67.84 06/30/2014 17:26:35 49.70, -69.19 100.74 77
2 06/30/2014 19:05:30 45.48, -90.81 06/30/2014 19:06:46 45.14, -92.68 150.76 76
3 06/30/2014 20:41:53 36.52,-112.62 06/30/2014 20:45:39 36.03,-114.93 214.22 226
4 07/03/2014 06:56:35 20.06, -77.20 07/03/2014 06:51:23 19.96, -76.72 51.36 312
5 07/03/2014 08:32:27 30.96, -99.23 07/03/2014 08:29:45 30.97, -99.22 1.49 162
6 07/03/2014 10:06:17 49.07,-118.11 07/03/2014 10:06:02 49.13,-118.34 18.37 15
7 07/05/2014 21:04:14 50.00,-121.95 07/05/2014 20:56:07 50.07,-121.67 21.20 487
8 07/06/2014 07:19:12 49.92, -76.05 07/06/2014 07:27:09 50.32, -78.16 156.90 477




NCC Satellite Simultaneous Nadir Overpasses (SNOs) Prediction Service
